Date,TemperatureHighF,TemperatureAvgF,TemperatureLowF,DewpointHighF,DewpointAvgF,DewpointLowF,HumidityHigh,HumidityAvg,HumidityLow,PressureMaxIn,PressureMinIn,WindSpeedMaxMPH,WindSpeedAvgMPH,GustSpeedMaxMPH,PrecipitationSumIn
2013-3-1,36.1,33.5,31.6,31.8,29.8,27.3,92,86,80,30.21,30.10,9,1,13,0.00
2013-3-2,39.0,33.0,28.0,28.4,26.3,23.2,90,77,55,30.23,30.09,7,0,11,0.01
2013-3-3,37.6,32.0,26.8,30.0,26.6,23.2,88,80,70,30.20,30.06,11,1,13,0.00
2013-3-4,41.5,34.6,27.1,30.0,26.7,24.3,91,74,57,30.25,30.14,7,1,11,0.00
2013-3-5,46.4,35.6,25.5,32.9,28.2,22.6,90,75,57,30.14,29.84,6,1,11,0.00
2013-3-6,48.7,38.4,29.3,37.0,31.5,26.4,89,77,61,29.84,29.61,5,1,9,0.00
2013-3-7,46.9,41.5,36.0,42.8,38.5,32.9,96,89,82,29.62,29.55,4,0,7,0.01
2013-3-8,44.6,41.7,37.6,43.5,40.9,36.9,98,97,95,29.62,29.58,4,0,7,0.02
2013-3-9,39.4,38.1,36.3,38.8,37.6,35.8,98,98,97,29.62,29.54,2,0,5,0.07
2013-3-10,53.1,44.7,39.2,46.4,41.2,38.7,99,89,59,29.54,29.38,7,1,9,0.02
2013-3-11,43.2,26.6,21.9,41.4,24.9,20.1,98,94,88,29.66,29.39,9,2,14,0.01
2013-3-12,26.4,24.2,21.4,23.5,22.1,20.1,96,92,87,29.66,29.50,7,2,11,0.00
2013-3-13,26.2,22.9,21.0,21.6,20.0,18.0,95,88,80,29.71,29.50,10,2,12,0.00
2013-3-14,29.1,23.6,18.0,18.0,16.6,14.2,89,75,56,29.80,29.71,9,2,18,0.06
2013-3-15,29.1,23.8,18.7,22.8,18.5,14.7,88,80,62,30.05,29.79,10,2,15,0.00
2013-3-16,34.9,25.9,16.2,22.1,16.9,12.9,92,70,45,30.12,29.99,7,1,10,0.02
2013-3-17,39.6,30.6,20.8,24.4,20.4,16.2,83,66,50,29.99,29.64,13,4,18,0.03
2013-3-18,37.4,31.0,27.1,31.3,27.0,22.6,97,85,71,29.64,29.21,8,2,14,0.01
2013-3-19,39.2,34.1,30.6,34.5,31.5,28.9,96,90,82,29.55,29.20,9,1,14,0.95
2013-3-20,47.1,38.3,32.2,37.9,33.8,30.6,96,85,65,29.75,29.55,7,1,9,0.04
2013-3-21,36.9,33.3,28.2,35.2,28.6,23.2,96,83,67,30.04,29.74,14,2,19,0.00
2013-3-22,29.7,27.7,26.2,25.2,23.0,20.8,89,82,72,30.10,30.03,11,2,13,0.00
2013-3-23,29.1,24.3,16.5,23.4,14.5,6.4,88,67,48,30.18,30.08,13,4,23,0.00
2013-3-24,31.6,20.7,13.8,14.7,8.1,2.5,73,59,35,30.18,30.06,20,5,23,0.00
2013-3-25,28.2,23.3,19.0,17.2,13.4,10.2,75,66,47,30.08,29.91,13,5,21,0.00
2013-3-26,31.5,25.5,21.0,15.6,14.0,10.0,77,62,41,29.91,29.83,15,3,15,0.00
2013-3-27,27.3,24.9,21.4,25.0,20.6,13.6,93,84,66,29.90,29.85,10,2,12,0.01
2013-3-28,36.1,30.4,26.1,29.3,26.6,23.7,93,86,72,29.88,29.73,7,2,11,0.01
2013-3-29,39.7,34.4,30.2,33.3,28.4,23.9,95,80,54,29.72,29.62,11,1,16,0.11
2013-3-30,39.2,34.1,29.7,30.6,27.5,25.3,86,77,67,29.70,29.63,12,2,12,0.00
2013-3-31,33.3,30.7,28.0,27.9,26.1,24.3,93,83,70,29.77,29.67,11,3,16,0.00